Flag for Germany Weather past 2 weeks in Garmisch-Partenkirchen, Bavaria, Germany

Now
63 °F

Partly cloudy.


Feels Like: 63 °F
Forecast: 54 / 75 °F
Wind: 2 mph from North

Location: Innsbruck-Flughafen

Current Time: Jul 23, 2014 at 4:21:07 AM

Latest Report: Jul 23, 2014 at 3:50 AM


Visibility: N/A

Pressure: 29.98 "Hg

Humidity: 94%

Dew point: 61 °F

Location of Garmisch-PartenkirchenLocation

Historic Weather in Garmisch-Partenkirchen — Graph

°F

Garmisch-Partenkirchen temperature yesterday

Maximum temperature yesterday: 70 °F (at 3:50 PM)
Minimum temperature yesterday: 57 °F (at 1:50 AM)
Average temperature yesterday: 62 °F

Past Weeks' High & Low Weather Summary

 TemperatureHumidityPressure
High93 °F (Jul 19, 4:20 PM)100% (Jul 11, 4:50 AM)30.24 "Hg (Jul 11, 4:50 AM)
Low52 °F (Jul 9, 4:50 AM)21% (Jul 19, 4:20 PM)29.74 "Hg (Jul 8, 12:20 PM)
Average66 °F72%29.98 "Hg
* Reported Jul 8 2:20 AM — Jul 23 2:50 AM, Garmisch-Partenkirchen, Weather by CustomWeather, © 2014

Note: Actual official high and low records may vary slightly from our data, if they occured in-between our weather recording intervals... More about our weather records

Advertising

Garmisch-Partenkirchen weather history for previous 24 hours

 ConditionsComfort  
Time TempWeatherWind HumidityBarometerVisibility
2:50 AM
Jul 23
63 °FPassing clouds.3 mph100%30.01 "Hg6 mi
1:50 AM63 °FRain. Passing clouds.1 mph94%30.01 "Hg5 mi
6:50 PM
Jul 22
66 °FLight rain. Broken clouds.7 mph83%29.95 "HgN/A
6:20 PM68 °FLight rain. Broken clouds.5 mph83%29.95 "HgN/A
5:50 PM68 °FSprinkles. Broken clouds.3 mph78%29.95 "HgN/A
5:20 PM68 °FSprinkles. Broken clouds.3 mph78%29.92 "HgN/A
4:50 PM68 °FBroken clouds.5 mph73%29.92 "HgN/A
4:20 PM70 °FBroken clouds.6 mph73%29.92 "HgN/A
3:50 PM70 °FBroken clouds.5 mph69%29.92 "HgN/A
3:20 PM68 °FBroken clouds.5 mph73%29.92 "HgN/A
2:50 PM68 °FBroken clouds.2 mph73%29.92 "HgN/A
2:20 PM68 °FBroken clouds.2 mph73%29.92 "HgN/A
1:50 PM68 °FBroken clouds.3 mph73%29.92 "HgN/A
1:20 PM66 °FBroken clouds.1 mph73%29.92 "HgN/A
12:50 PM66 °FBroken clouds.2 mph78%29.92 "HgN/A
12:20 PM64 °FSprinkles. Broken clouds.1 mph78%29.92 "HgN/A
11:50 AM64 °FBroken clouds.5 mph78%29.92 "HgN/A
11:20 AM64 °FBroken clouds.1 mph78%29.92 "HgN/A
10:50 AM64 °FBroken clouds.2 mph83%29.92 "HgN/A
10:20 AM63 °FBroken clouds.3 mph83%29.92 "HgN/A
9:50 AM63 °FBroken clouds.6 mph83%29.92 "HgN/A
9:20 AM61 °FBroken clouds.8 mph88%29.92 "HgN/A
8:50 AM61 °FBroken clouds.6 mph88%29.92 "HgN/A
8:20 AM61 °FBroken clouds.5 mph88%29.92 "HgN/A
7:50 AM59 °FBroken clouds.5 mph94%29.92 "HgN/A
7:20 AM59 °FBroken clouds.5 mph94%29.92 "HgN/A
6:50 AM59 °FBroken clouds.2 mph88%29.92 "HgN/A
6:20 AM57 °FPartly cloudy.1 mph100%29.89 "HgN/A
5:50 AM57 °FLight rain. Partly cloudy.1 mph100%29.89 "HgN/A
5:20 AM57 °FLight rain. Partly cloudy.3 mph100%29.89 "HgN/A
4:50 AM57 °FLight rain. Partly cloudy.1 mph100%29.89 "Hg6 mi
4:20 AM57 °FPartly cloudy.3 mph100%29.89 "Hg6 mi
Weather by CustomWeather, © 2014

See weather overviewHow to use our weather pages